Volver al catálogo

COSMOS 2010

ActivoMilitarLEO
NORAD 19904·PAYLOAD·🇷🇺 Russia

Lanzado Mar 24, 1989 desde Plesetsk Cosmodrome

Loading…

Próximos Pases (próximas 24 horas)

TLE

ActualizadoSource: Space-Track

Época: Sep 14, 2026, 09:37 UTC

1 19904U 89025C   26257.40128617 -.00000027  00000-0 -64414-4 0  9992
2 19904  74.0102  48.0860 0031041 287.3283 100.6656 12.54074438629141

Sigue COSMOS 2010 en tiempo real con AllMySat

Download on the App Store